[[{"header":{"parameterUnit":"m.s-1","parameterCategory":1,"la1":30.2991,"la2":30.254,"lo1":-89.0895,"lo2":-89.0444,"dy":0.0017,"dx":0.0017,"nx":28,"ny":28,"refTime":"2024-10-05T09:00:00:Z","depth":0,"parameterNumber":2,"parameterNumberName":"U-component_of_WINDS"},"data":[0,0,0,0,0,0,0,0,0,0,0,0,0,0,0,0,0,0,0,0,0,0,0,0,0,0,0,0,0,0,0,0,0,0,0,0,0,0,0,0,0,0,0,0,0,0,0,0,0,0,0,0,0,0,0,0,0,0,-2.7148,-2.7148,0,-2.7177,-2.7177,-2.7178,-2.7085,-2.7082,-2.7079,-2.7077,-2.7109,-2.7112,-2.7116,0,0,0,0,0,0,0,0,0,0,0,0,0,-2.7014,-2.7017,-2.7148,-2.7148,-2.7149,-2.7177,-2.7177,-2.7178,-2.7085,-2.7082,-2.7079,-2.7075,-2.7108,-2.7112,-2.7116,0,0,0,0,0,0,0,0,0,0,0,0,0,-2.7061,-2.7018,-2.7148,-2.7106,-2.7102,-2.7177,-2.7177,-2.7178,-2.7086,-2.7082,-2.7078,-2.7074,-2.7106,-2.7111,-2.7117,-2.7234,0,0,-2.7133,-2.7135,0,0,0,0,0,0,0,0,-2.7058,-2.7066,-2.7112,-2.7109,-2.7105,-2.7123,-2.7142,-2.7197,-2.7087,-2.7092,-2.7077,-2.7072,-2.7117,-2.7121,-2.7136,-2.7235,-2.7236,-2.7133,-2.7136,-2.7138,-2.714,0,0,0,0,0,0,0,-2.7055,-2.7064,-2.7159,-2.7113,-2.7109,-2.7086,-2.7088,-2.7152,-2.7128,-2.7092,-2.7085,-2.709,-2.7115,-2.7131,-2.7136,-2.7237,-2.7133,-2.7138,-2.7141,-2.7143,-2.7433,-2.7438,0,0,0,0,0,0,-2.7057,-2.7062,-2.7158,-2.716,-2.7071,-2.7092,-2.7094,-2.7122,-2.7127,-2.7124,-2.7093,-2.7085,-2.7124,-2.713,-2.7137,-2.7275,-2.7138,-2.7143,-2.7146,-2.7429,-2.7434,-2.7439,0,0,0,0,0,0,-2.7054,-2.7066,-2.7157,-2.7109,-2.7119,-2.7099,-2.713,-2.7124,-2.7141,-2.7128,-2.7124,-2.7115,-2.7121,-2.713,-2.721,-2.7275,-2.7146,-2.715,-2.7423,-2.7431,-2.7437,-2.7552,0,0,0,0,0,0,-2.7051,-2.7066,-2.711,-2.7111,-2.7122,-2.723,-2.7134,-2.7128,-2.715,-2.714,-2.7147,-2.7144,-2.7119,-2.7203,-2.7215,-2.728,-2.7155,-2.7418,-2.7427,-2.7435,-2.7542,-2.7562,-2.7578,0,0,0,0,0,-2.7047,-2.7142,-2.7113,-2.7125,-2.7177,-2.7234,-2.724,-2.7208,-2.7155,-2.72,-2.7192,-2.7144,-2.7265,-2.7212,-2.7225,-2.7292,-2.7413,-2.7424,-2.7434,-2.7534,-2.7558,-2.7578,0,0,0,0,0,0,-2.715,-2.7141,-2.7109,-2.7207,-2.7222,-2.7218,-2.7273,-2.7234,-2.7265,-2.7254,-2.7213,-2.7216,-2.7304,-2.7305,-2.7246,-2.7405,-2.733,-2.7344,-2.7402,-2.7424,-2.7442,-2.7441,-2.7159,0,0,0,0,0,-2.7184,-2.7231,-2.7221,-2.7308,-2.7317,-2.7294,-2.7318,-2.7292,-2.7306,-2.7312,-2.7309,-2.7325,-2.7367,-2.7395,-2.7432,-2.7541,-2.7542,-2.7593,-2.7611,-2.7626,-2.7639,-2.7697,-2.772,-2.7473,-2.7473,-2.7473,0,0,-2.7256,-2.7256,-2.7289,-2.7329,-2.7337,-2.7388,-2.73,-2.7357,-2.7394,-2.732,-2.7397,-2.7395,-2.741,-2.7505,-2.7547,-2.751,-2.7707,-2.7639,-2.7651,-2.7656,-2.771,-2.7734,-2.7755,-2.748,-2.7479,-2.7478,0,0,-2.7412,-2.7417,-2.749,-2.75,-2.7513,-2.7497,-2.7515,-2.7517,-2.7513,-2.7588,-2.7534,-2.7578,-2.765,-2.7663,-2.7679,-2.7839,-2.7797,-2.7852,-2.7948,-2.8005,-2.8024,-2.8041,-2.81,-2.8121,-2.7864,-2.7865,-2.7865,0,-2.7499,-2.7572,-2.7533,-2.7594,-2.7614,-2.7548,-2.7623,-2.7634,-2.766,-2.7675,-2.7632,-2.7721,-2.7726,-2.7824,-2.7863,-2.7877,-2.7897,-2.7852,-2.8024,-2.8041,-2.8057,-2.8112,-2.8134,-2.7871,-2.7871,-2.787,-2.7869,0,-2.768,-2.7731,-2.7789,-2.7814,-2.784,-2.7908,-2.788,-2.791,-2.7881,-2.787,-2.7948,-2.7951,-2.7989,-2.8009,-2.7982,-2.8103,-2.808,-2.8031,-2.7955,-2.8088,-2.8139,-2.816,-2.7881,-2.7879,-2.7877,-2.7875,0,0,-2.7904,-2.7906,-2.7928,-2.7939,-2.7948,-2.7987,-2.8052,-2.8087,-2.8115,-2.8134,-2.8188,-2.8249,-2.8204,-2.8223,-2.8196,-2.8246,-2.8373,-2.8191,-2.8191,-2.8226,-2.8509,-2.8547,-2.8572,-2.8344,-2.8348,-2.8351,-2.8508,0,-2.8059,-2.8169,-2.8135,-2.8246,-2.8294,-2.8231,-2.8287,-2.8299,-2.829,-2.8329,-2.8318,-2.8363,-2.8299,-2.831,-2.8356,-2.8348,-2.843,-2.8336,-2.8395,-2.8398,-2.8396,-2.8598,-2.8639,-2.8787,-2.8528,-2.8531,-2.8533,0,-2.8255,-2.8281,-2.8397,-2.8398,-2.8416,-2.8467,-2.8497,-2.8535,-2.8547,-2.8536,-2.8557,-2.8519,-2.8582,-2.8505,-2.8592,-2.8529,-2.8551,-2.855,-2.8555,-2.8561,-2.8476,-2.8612,-2.8833,-2.8856,-2.8564,-2.8562,-2.856,0,-2.8409,-2.8473,-2.8551,-2.8562,-2.8564,-2.8602,-2.8605,-2.8612,-2.8636,-2.8662,-2.8677,-2.871,-2.8729,-2.8755,-2.8728,-2.8674,-2.882,-2.874,-2.8815,-2.8816,-2.885,-2.8849,-2.9081,-2.8861,-2.8861,-2.8861,-2.886,0,-2.8587,-2.8661,-2.862,-2.8668,-2.8749,-2.8709,-2.879,-2.8786,-2.8793,-2.884,-2.8787,-2.8832,-2.8792,-2.8833,-2.8812,-2.8888,-2.8897,-2.8891,-2.8885,-2.8897,-2.8898,-2.8913,-2.8902,-2.8866,-2.8865,-2.8864,-2.8863,0,-2.8775,-2.875,-2.8831,-2.8826,-2.8826,-2.8886,-2.8882,-2.8927,-2.8912,-2.8972,-2.8984,-2.8962,-2.9008,-2.8982,-2.903,-2.9015,-2.9115,-2.9094,-2.9111,-2.9106,-2.9183,-2.9177,-2.9434,-2.9466,-2.9224,-2.9227,-2.9229,0,-2.8891,-2.8946,-2.8947,-2.8974,-2.898,-2.9024,-2.9047,-2.901,-2.9036,-2.9054,-2.9097,-2.9137,-2.9169,-2.9245,-2.9234,-2.927,-2.925,-2.9337,-2.9255,-2.9266,-2.9254,-2.9252,-2.9258,-2.9355,-2.9358,-2.936,-2.9362,0,-2.91,-2.9085,-2.912,-2.9152,-2.9181,-2.9204,-2.9222,-2.9248,-2.921,-2.9243,-2.9288,-2.9312,-2.936,-2.9402,-2.9432,-2.9435,-2.9394,-2.9387,-2.9407,-2.9421,-2.943,-2.9428,-2.9159,-2.9382,-2.938,-2.9379,-2.9378,-2.9377,-2.9257,-2.9303,-2.9311,-2.9352,-2.9361,-2.938,-2.9422,-2.9412,-2.9449,-2.9485,-2.946,-2.9515,-2.9525,-2.9561,-2.957,-2.9612,-2.9577,-2.9605,-2.9613,-2.9621,-2.9632,-2.9421,-2.9617,-2.9617,-2.9616,-2.9615,-2.9615,0,-2.9465,-2.9467,-2.9505,-2.9532,-2.9564,-2.952,-2.9538,-2.9568,-2.9616,-2.9629,-2.966,-2.9713,-2.9753,-2.9744,-2.978,-2.9816,-2.9798,-2.9827,-2.9825,-2.9827,-2.966,-2.9641,-2.9841,-2.9841,-2.9841,-2.9841,-2.9841,-2.9841,-2.9578,-2.9654,-2.9639,-2.972,-2.972,-2.9773,-2.9787,-2.9804,-2.9814,-2.9875,-2.9907,-2.9901,-2.9905,-2.9941,-2.9976,-2.9972,-2.9989,-3.0026,-3.0016,-2.9861,-2.9839,-2.9817,-2.9799,-3.0029,-3.003,-3.0179,-3.018,-3.0181]},{"header":{"parameterUnit":"m.s-1","parameterCategory":1,"la1":30.2991,"la2":30.254,"lo1":-89.0895,"lo2":-89.0444,"dy":0.0017,"dx":0.0017,"nx":28,"ny":28,"refTime":"2024-10-05T09:00:00:Z","depth":0,"parameterNumber":3,"parameterNumberName":"V-component_of_WINDS"},"data":[0,0,0,0,0,0,0,0,0,0,0,0,0,0,0,0,0,0,0,0,0,0,0,0,0,0,0,0,0,0,0,0,0,0,0,0,0,0,0,0,0,0,0,0,0,0,0,0,0,0,0,0,0,0,0,0,0,0,-5.1793,-5.1794,0,-5.1861,-5.1862,-5.1863,-5.1802,-5.18,-5.1798,-5.1795,-5.186,-5.1864,-5.1868,0,0,0,0,0,0,0,0,0,0,0,0,0,-5.1606,-5.161,-5.1793,-5.1794,-5.1795,-5.1861,-5.1862,-5.1863,-5.1803,-5.18,-5.1797,-5.1794,-5.1859,-5.1864,-5.1869,0,0,0,0,0,0,0,0,0,0,0,0,0,-5.1682,-5.1611,-5.1793,-5.1773,-5.1772,-5.1861,-5.1862,-5.1863,-5.1804,-5.18,-5.1796,-5.1793,-5.1857,-5.1863,-5.1869,-5.198,0,0,-5.1888,-5.189,0,0,0,0,0,0,0,0,-5.1678,-5.1689,-5.1775,-5.1775,-5.1774,-5.182,-5.182,-5.1902,-5.1804,-5.1791,-5.1795,-5.1791,-5.1849,-5.1856,-5.1877,-5.1983,-5.1986,-5.1888,-5.1892,-5.1894,-5.1896,0,0,0,0,0,0,0,-5.1673,-5.1686,-5.182,-5.1776,-5.1775,-5.1759,-5.1766,-5.1835,-5.184,-5.1792,-5.1788,-5.1797,-5.1848,-5.1871,-5.1878,-5.1987,-5.1888,-5.1893,-5.1897,-5.1899,-5.2186,-5.219,0,0,0,0,0,0,-5.167,-5.1682,-5.1818,-5.1822,-5.1716,-5.1765,-5.1773,-5.1808,-5.1839,-5.184,-5.18,-5.1794,-5.1862,-5.1871,-5.188,-5.2011,-5.1894,-5.19,-5.1903,-5.2182,-5.2187,-5.2191,0,0,0,0,0,0,-5.1666,-5.1683,-5.1815,-5.1751,-5.1766,-5.1773,-5.1813,-5.1812,-5.1834,-5.1845,-5.1845,-5.1823,-5.186,-5.1871,-5.1956,-5.2012,-5.1903,-5.1908,-5.2177,-5.2184,-5.2189,-5.2274,0,0,0,0,0,0,-5.1661,-5.1682,-5.1725,-5.1752,-5.177,-5.1892,-5.1817,-5.1816,-5.1846,-5.1838,-5.1867,-5.1868,-5.1858,-5.1947,-5.1962,-5.2018,-5.1913,-5.2172,-5.218,-5.2187,-5.2266,-5.2282,-5.2296,0,0,0,0,0,-5.1655,-5.1746,-5.1728,-5.1745,-5.1825,-5.1895,-5.1905,-5.1893,-5.185,-5.1893,-5.19,-5.1867,-5.2004,-5.1956,-5.1972,-5.2032,-5.2169,-5.2178,-5.2187,-5.226,-5.2279,-5.2296,0,0,0,0,0,0,-5.1724,-5.1749,-5.1729,-5.1832,-5.1862,-5.1885,-5.1938,-5.1914,-5.1956,-5.1947,-5.1929,-5.1936,-5.2025,-5.2036,-5.1983,-5.214,-5.2079,-5.2092,-5.2129,-5.2148,-5.2162,-5.2157,-5.1918,0,0,0,0,0,-5.1752,-5.1808,-5.1826,-5.1915,-5.1931,-5.1933,-5.1963,-5.1951,-5.198,-5.1992,-5.2005,-5.2034,-5.2083,-5.2116,-5.2162,-5.2268,-5.2272,-5.2316,-5.2331,-5.2343,-5.2354,-5.241,-5.2429,-5.2221,-5.2221,-5.2221,0,0,-5.1808,-5.1829,-5.1865,-5.1929,-5.1951,-5.2008,-5.1943,-5.2007,-5.2049,-5.2001,-5.2082,-5.2093,-5.2123,-5.2219,-5.2261,-5.2231,-5.2413,-5.2355,-5.2364,-5.2369,-5.2421,-5.2441,-5.2458,-5.2227,-5.2226,-5.2225,0,0,-5.1941,-5.1963,-5.2039,-5.2062,-5.2097,-5.2097,-5.2115,-5.2142,-5.2147,-5.2228,-5.2194,-5.2242,-5.2328,-5.2351,-5.2374,-5.2515,-5.2485,-5.253,-5.2608,-5.2662,-5.2678,-5.2693,-5.2742,-5.276,-5.2541,-5.2541,-5.2541,0,-5.2007,-5.2094,-5.2081,-5.2147,-5.2175,-5.2137,-5.2213,-5.2235,-5.2282,-5.2302,-5.2268,-5.2374,-5.2392,-5.2492,-5.2526,-5.2546,-5.2565,-5.2527,-5.2677,-5.2692,-5.2705,-5.2752,-5.277,-5.2546,-5.2546,-5.2545,-5.2545,0,-5.2172,-5.2233,-5.229,-5.2338,-5.2372,-5.2443,-5.2439,-5.2476,-5.2461,-5.2464,-5.2546,-5.2567,-5.2616,-5.2638,-5.2624,-5.2736,-5.2716,-5.268,-5.2618,-5.273,-5.2774,-5.2792,-5.2554,-5.2552,-5.2551,-5.2549,0,0,-5.235,-5.2391,-5.2412,-5.2433,-5.2467,-5.2513,-5.2581,-5.263,-5.2662,-5.2695,-5.2751,-5.2824,-5.2791,-5.2817,-5.2804,-5.2852,-5.2961,-5.281,-5.281,-5.2837,-5.3084,-5.3111,-5.3132,-5.2942,-5.2946,-5.2948,-5.3081,0,-5.2484,-5.2605,-5.2595,-5.2708,-5.2763,-5.2726,-5.2785,-5.2812,-5.2817,-5.2863,-5.2867,-5.2919,-5.2872,-5.2887,-5.2933,-5.2939,-5.3011,-5.2929,-5.2992,-5.2995,-5.2985,-5.3155,-5.3183,-5.3308,-5.3098,-5.3101,-5.3103,0,-5.2656,-5.2697,-5.2816,-5.2842,-5.2865,-5.2918,-5.2962,-5.3007,-5.3036,-5.3036,-5.3065,-5.3044,-5.3111,-5.3049,-5.3139,-5.3084,-5.3109,-5.3116,-5.312,-5.3125,-5.3056,-5.3164,-5.3348,-5.3366,-5.313,-5.3128,-5.3126,0,-5.2773,-5.2858,-5.294,-5.2959,-5.2992,-5.303,-5.3045,-5.307,-5.31,-5.3138,-5.3157,-5.3202,-5.3226,-5.326,-5.3251,-5.3207,-5.3344,-5.3281,-5.3344,-5.3345,-5.3374,-5.3372,-5.3564,-5.3392,-5.3392,-5.3391,-5.3391,0,-5.2923,-5.2997,-5.2993,-5.3044,-5.3125,-5.3112,-5.3192,-5.3202,-5.3225,-5.3275,-5.3246,-5.3293,-5.3279,-5.3326,-5.3319,-5.3395,-5.3406,-5.3406,-5.3404,-5.3409,-5.3409,-5.3425,-5.3415,-5.3396,-5.3395,-5.3394,-5.3393,0,-5.3068,-5.3068,-5.3155,-5.3179,-5.3186,-5.3245,-5.3265,-5.3311,-5.3313,-5.3377,-5.3391,-5.3395,-5.3447,-5.3442,-5.3501,-5.3497,-5.359,-5.3577,-5.3581,-5.3578,-5.3641,-5.3635,-5.385,-5.3877,-5.3687,-5.3689,-5.3691,0,-5.3163,-5.3219,-5.325,-5.3282,-5.33,-5.3353,-5.3383,-5.3372,-5.3405,-5.3442,-5.3484,-5.3534,-5.3574,-5.366,-5.3666,-5.3711,-5.3698,-5.377,-5.3705,-5.3708,-5.3698,-5.3695,-5.37,-5.3783,-5.3785,-5.3787,-5.3789,0,-5.3332,-5.333,-5.3376,-5.3423,-5.3461,-5.3496,-5.3529,-5.3556,-5.3548,-5.3586,-5.3641,-5.3672,-5.3733,-5.3783,-5.3825,-5.3838,-5.3812,-5.3809,-5.3826,-5.3832,-5.3831,-5.3831,-5.3616,-5.3804,-5.3803,-5.3801,-5.3801,-5.38,-5.3454,-5.3503,-5.3531,-5.3584,-5.3607,-5.3638,-5.3683,-5.3691,-5.3737,-5.3787,-5.3777,-5.3838,-5.3864,-5.3918,-5.3935,-5.3982,-5.3955,-5.398,-5.3986,-5.3992,-5.3999,-5.3825,-5.3989,-5.3989,-5.3988,-5.3988,-5.3988,0,-5.3621,-5.3638,-5.3687,-5.3734,-5.3774,-5.3748,-5.3782,-5.3817,-5.3872,-5.3899,-5.3939,-5.4001,-5.4049,-5.406,-5.4105,-5.414,-5.4129,-5.4152,-5.4149,-5.4153,-5.4021,-5.4001,-5.4161,-5.4161,-5.4161,-5.416,-5.416,-5.416,-5.3713,-5.3793,-5.3794,-5.3884,-5.3899,-5.396,-5.3982,-5.401,-5.4031,-5.4103,-5.4143,-5.415,-5.417,-5.4216,-5.4259,-5.426,-5.4278,-5.4306,-5.4303,-5.4179,-5.4162,-5.4145,-5.4127,-5.431,-5.431,-5.4431,-5.4432,-5.4433]}]]